THY9QA LIPE-LTFM

Flight info

Callsign THY9QA
Flight time 1h 59m
Altitude 35000
Route LUMAV M859 CHI M167 BASOG Z122 LABIN DCT SONIK DCT ELTIB DCT MITNO DCT NISVA DCT DEDIN DCT GERGI T391 AYTEK
Aircraft A321/M-SDE3FGHIRWY/LB1

Departure

Time 2026-05-05 22:38
Airport Bologna Guglielmo Marconi Airport (LIPE)

Arrival

Time 2026-05-06 00:37
Airport İstanbul Airport (LTFM)
Time Latitude Longitude Altitude Speed Heading
2026-05-05 22:05 44.53033 11.29429 126 ft 0 kts 207°
2026-05-05 22:30 44.53035 11.29430 130 ft 1 kts 207°
2026-05-05 22:30 44.53049 11.29440 131 ft 3 kts 207°
2026-05-05 22:30 44.53066 11.29452 131 ft 3 kts 197°
2026-05-05 22:31 44.53081 11.29455 131 ft 3 kts 143°
2026-05-05 22:31 44.53089 11.29442 131 ft 1 kts 116°
2026-05-05 22:31 44.53096 11.29423 131 ft 3 kts 117°
2026-05-05 22:31 44.53102 11.29406 131 ft 0 kts 117°
2026-05-05 22:34 44.53099 11.29414 131 ft 2 kts 117°
2026-05-05 22:34 44.53086 11.29449 126 ft 8 kts 117°
2026-05-05 22:35 44.53067 11.29500 129 ft 9 kts 117°
2026-05-05 22:35 44.53075 11.29582 128 ft 9 kts 78°
2026-05-05 22:35 44.53057 11.29671 130 ft 10 kts 113°
2026-05-05 22:35 44.53023 11.29767 130 ft 12 kts 117°
2026-05-05 22:36 44.53020 11.29779 130 ft 0 kts 107°
2026-05-05 22:36 44.53026 11.29792 130 ft 6 kts 62°
2026-05-05 22:36 44.53056 11.29849 130 ft 8 kts 57°
2026-05-05 22:36 44.53093 11.29924 129 ft 10 kts 50°
2026-05-05 22:37 44.53159 11.29923 128 ft 11 kts 316°
2026-05-05 22:37 44.53207 11.29804 129 ft 28 kts 296°
2026-05-05 22:37 44.53418 11.29223 129 ft 103 kts 296°
2026-05-05 22:37 44.53836 11.28060 132 ft 161 kts 297°
2026-05-05 22:38 44.54344 11.26635 758 ft 162 kts 298°
2026-05-05 22:38 44.54880 11.25158 1183 ft 180 kts 297°
2026-05-05 22:38 44.55475 11.23505 1429 ft 200 kts 297°
2026-05-05 22:38 44.56342 11.21868 1589 ft 222 kts 322°
2026-05-05 22:39 44.57846 11.21136 1820 ft 241 kts
2026-05-05 22:39 44.59459 11.21855 2170 ft 258 kts 34°
2026-05-05 22:39 44.60919 11.23382 2817 ft 265 kts 38°
2026-05-05 22:39 44.62355 11.25045 3551 ft 270 kts 39°
2026-05-05 22:40 44.63801 11.26772 4252 ft 276 kts 40°
2026-05-05 22:40 44.65279 11.28540 4957 ft 282 kts 40°
2026-05-05 22:40 44.66788 11.30333 5676 ft 286 kts 39°
2026-05-05 22:40 44.68323 11.32136 6401 ft 290 kts 39°
2026-05-05 22:41 44.69877 11.33946 7103 ft 293 kts 39°
2026-05-05 22:41 44.71473 11.35800 7815 ft 297 kts 39°
2026-05-05 22:41 44.73022 11.37739 8506 ft 300 kts 47°
2026-05-05 22:41 44.74252 11.40123 9182 ft 304 kts 62°
2026-05-05 22:42 44.75164 11.42818 9846 ft 306 kts 66°
2026-05-05 22:42 44.76079 11.45584 10234 ft 322 kts 65°
2026-05-05 22:42 44.77050 11.48501 10370 ft 344 kts 65°
2026-05-05 22:42 44.78092 11.51615 10682 ft 357 kts 65°
2026-05-05 22:43 44.79162 11.54811 11238 ft 362 kts 65°
2026-05-05 22:43 44.80243 11.58041 11826 ft 367 kts 65°
2026-05-05 22:43 44.81336 11.61310 12396 ft 371 kts 65°
2026-05-05 22:43 44.82498 11.64582 12974 ft 375 kts 63°
2026-05-05 22:44 44.83750 11.67843 13550 ft 379 kts 61°
2026-05-05 22:44 44.85051 11.71103 14106 ft 383 kts 60°
2026-05-05 22:44 44.86358 11.74345 14669 ft 386 kts 60°
2026-05-05 22:44 44.87683 11.77664 15212 ft 390 kts 61°
2026-05-05 22:45 44.89011 11.81025 15748 ft 393 kts 61°
2026-05-05 22:45 44.90339 11.84423 16255 ft 398 kts 62°
2026-05-05 22:45 44.91676 11.87867 16762 ft 401 kts 62°
2026-05-05 22:45 44.93016 11.91332 17256 ft 405 kts 62°
2026-05-05 22:46 44.94368 11.94840 17741 ft 408 kts 62°
2026-05-05 22:46 44.95725 11.98371 18213 ft 411 kts 62°
2026-05-05 22:46 44.97095 12.01944 18684 ft 415 kts 62°
2026-05-05 22:46 44.98470 12.05541 19204 ft 417 kts 62°
2026-05-05 22:47 44.99835 12.09109 19678 ft 419 kts 62°
2026-05-05 22:47 45.01228 12.12743 20138 ft 421 kts 62°
2026-05-05 22:47 45.02630 12.16400 20580 ft 424 kts 62°
2026-05-05 22:47 45.04039 12.20081 20999 ft 426 kts 62°
2026-05-05 22:48 45.05458 12.23796 21414 ft 429 kts 62°
2026-05-05 22:48 45.06858 12.27488 21820 ft 431 kts 63°
2026-05-05 22:48 45.08059 12.31389 22219 ft 434 kts 69°
2026-05-05 22:48 45.09199 12.35355 22610 ft 436 kts 68°
2026-05-05 22:49 45.10351 12.39345 22992 ft 438 kts 68°
2026-05-05 22:49 45.11385 12.43405 23352 ft 440 kts 76°
2026-05-05 22:49 45.11938 12.47678 23713 ft 440 kts 86°
2026-05-05 22:49 45.11970 12.51960 24060 ft 440 kts 97°
2026-05-05 22:50 45.11491 12.56240 24413 ft 440 kts 107°
2026-05-05 22:50 45.10568 12.60373 24738 ft 440 kts 112°
2026-05-05 22:50 45.09561 12.64488 25063 ft 443 kts 112°
2026-05-05 22:50 45.08551 12.68641 25384 ft 445 kts 111°
2026-05-05 22:51 45.07559 12.72734 25669 ft 448 kts 111°
2026-05-05 22:51 45.06537 12.76933 25966 ft 452 kts 112°
2026-05-05 22:51 45.05504 12.81151 26291 ft 454 kts 111°
2026-05-05 22:51 45.04461 12.85378 26593 ft 457 kts 112°
2026-05-05 22:52 45.03406 12.89636 26894 ft 460 kts 112°
2026-05-05 22:52 45.02351 12.93909 27189 ft 462 kts 111°
2026-05-05 22:52 45.01290 12.98213 27455 ft 465 kts 111°
2026-05-05 22:52 45.00220 13.02547 27758 ft 467 kts 111°
2026-05-05 22:53 44.99156 13.06838 28033 ft 470 kts 111°
2026-05-05 22:53 44.98232 13.11282 28300 ft 474 kts 104°
2026-05-05 22:53 44.97500 13.15835 28560 ft 476 kts 104°
2026-05-05 22:53 44.96761 13.20418 28822 ft 479 kts 104°
2026-05-05 22:54 44.96018 13.25020 29072 ft 481 kts 104°
2026-05-05 22:54 44.95267 13.29646 29332 ft 483 kts 104°
2026-05-05 22:54 44.94507 13.34278 29571 ft 486 kts 104°
2026-05-05 22:54 44.93750 13.38870 29805 ft 488 kts 104°
2026-05-05 22:55 44.92978 13.43544 30028 ft 490 kts 104°
2026-05-05 22:55 44.92200 13.48246 30252 ft 492 kts 104°
2026-05-05 22:55 44.91419 13.52964 30461 ft 495 kts 104°
2026-05-05 22:55 44.90635 13.57709 30663 ft 497 kts 104°
2026-05-05 22:56 44.89849 13.62462 30850 ft 499 kts 104°
2026-05-05 22:56 44.89056 13.67252 31042 ft 500 kts 104°
2026-05-05 22:56 44.88269 13.71972 31303 ft 500 kts 104°
2026-05-05 22:56 44.87466 13.76742 31562 ft 500 kts 104°
2026-05-05 22:57 44.86661 13.81515 31801 ft 501 kts 104°
2026-05-05 22:57 44.85852 13.86310 32039 ft 501 kts 105°
2026-05-05 22:57 44.85044 13.91089 32282 ft 501 kts 105°
2026-05-05 22:57 44.84235 13.95870 32521 ft 501 kts 104°
2026-05-05 22:58 44.83428 14.00643 32751 ft 502 kts 105°
2026-05-05 22:58 44.82613 14.05438 32971 ft 502 kts 104°
2026-05-05 22:58 44.81807 14.10160 33231 ft 502 kts 104°
2026-05-05 22:58 44.80990 14.14930 33477 ft 501 kts 104°
2026-05-05 22:59 44.80169 14.19697 33704 ft 501 kts 104°
2026-05-05 22:59 44.79346 14.24480 33938 ft 501 kts 104°
2026-05-05 22:59 44.78525 14.29256 34185 ft 501 kts 104°
2026-05-05 22:59 44.77704 14.34021 34424 ft 500 kts 104°
2026-05-05 23:00 44.76056 14.43507 34921 ft 498 kts 104°
2026-05-05 23:00 44.74410 14.52926 35037 ft 492 kts 104°
2026-05-05 23:01 44.72776 14.62200 35030 ft 490 kts 104°
2026-05-05 23:01 44.71127 14.71490 35036 ft 489 kts 104°
2026-05-05 23:02 44.69476 14.80776 35035 ft 489 kts 104°
2026-05-05 23:02 44.67830 14.90047 35038 ft 489 kts 104°
2026-05-05 23:03 44.66169 14.99320 35046 ft 489 kts 104°
2026-05-05 23:03 44.64504 15.08522 35049 ft 489 kts 104°
2026-05-05 23:04 44.62825 15.17793 35050 ft 489 kts 104°
2026-05-05 23:04 44.61138 15.27056 35051 ft 488 kts 104°
2026-05-05 23:05 44.59458 15.36242 35052 ft 488 kts 104°
2026-05-05 23:05 44.57759 15.45484 35054 ft 489 kts 104°
2026-05-05 23:06 44.56051 15.54729 35057 ft 489 kts 104°
2026-05-05 23:06 44.54349 15.63914 35055 ft 489 kts 104°
2026-05-05 23:07 44.52624 15.73161 35052 ft 490 kts 104°
2026-05-05 23:07 44.50883 15.82409 35048 ft 491 kts 104°
2026-05-05 23:08 44.49150 15.91616 35048 ft 491 kts 104°
2026-05-05 23:08 44.47400 16.00885 35049 ft 492 kts 104°
2026-05-05 23:09 44.45640 16.10142 35056 ft 492 kts 104°
2026-05-05 23:09 44.43834 16.19392 35056 ft 492 kts 106°
2026-05-05 23:10 44.41890 16.28496 35057 ft 491 kts 107°
2026-05-05 23:10 44.39883 16.37644 35053 ft 491 kts 107°
2026-05-05 23:11 44.37895 16.46797 35052 ft 490 kts 106°
2026-05-05 23:11 44.35939 16.55904 35056 ft 489 kts 106°
2026-05-05 23:12 44.33989 16.64948 35054 ft 488 kts 107°
2026-05-05 23:12 44.32025 16.74028 35054 ft 487 kts 107°
2026-05-05 23:13 44.30054 16.83087 35055 ft 486 kts 107°
2026-05-05 23:13 44.28152 16.92135 35053 ft 485 kts 106°
2026-05-05 23:14 44.26302 17.01131 35056 ft 484 kts 106°
2026-05-05 23:14 44.24449 17.10151 35055 ft 483 kts 106°
2026-05-05 23:15 44.22570 17.19147 35056 ft 482 kts 106°
2026-05-05 23:15 44.20675 17.28108 35060 ft 480 kts 106°
2026-05-05 23:16 44.18798 17.36972 35059 ft 479 kts 106°
2026-05-05 23:16 44.16907 17.45875 35053 ft 479 kts 106°
2026-05-05 23:17 44.15012 17.54772 35052 ft 478 kts 107°
2026-05-05 23:17 44.13117 17.63586 35052 ft 477 kts 107°
2026-05-05 23:18 44.11214 17.72447 35051 ft 477 kts 107°
2026-05-05 23:18 44.09305 17.81301 35052 ft 477 kts 107°
2026-05-05 23:19 44.07382 17.90149 35052 ft 477 kts 107°
2026-05-05 23:19 44.06426 17.94561 35056 ft 477 kts 107°
2026-05-05 23:20 44.04736 18.02385 35057 ft 477 kts 107°
2026-05-05 23:20 44.02801 18.11219 35058 ft 477 kts 107°
2026-05-05 23:21 44.00852 18.20051 35060 ft 477 kts 107°
2026-05-05 23:21 43.98913 18.28812 35069 ft 477 kts 107°
2026-05-05 23:22 43.96957 18.37636 35066 ft 477 kts 107°
2026-05-05 23:22 43.94991 18.46451 35066 ft 477 kts 107°
2026-05-05 23:23 43.93355 18.53772 35069 ft 477 kts 107°
2026-05-05 23:23 43.91052 18.64014 35068 ft 478 kts 107°
2026-05-05 23:24 43.89068 18.72807 35064 ft 478 kts 107°
2026-05-05 23:24 43.87413 18.80115 35064 ft 478 kts 107°
2026-05-05 23:25 43.85093 18.90331 35063 ft 478 kts 107°
2026-05-05 23:25 43.83418 18.97687 35064 ft 477 kts 107°
2026-05-05 23:26 43.81424 19.06402 35064 ft 477 kts 107°
2026-05-05 23:26 43.79407 19.15169 35061 ft 477 kts 107°
2026-05-05 23:27 43.77399 19.23875 35059 ft 476 kts 107°
2026-05-05 23:27 43.75480 19.32645 35059 ft 476 kts 105°
2026-05-05 23:28 43.73693 19.41476 35060 ft 475 kts 104°
2026-05-05 23:28 43.71928 19.50218 35055 ft 475 kts 105°
2026-05-05 23:29 43.70094 19.58992 35059 ft 474 kts 105°
2026-05-05 23:29 43.68237 19.67745 35059 ft 473 kts 105°
2026-05-05 23:30 43.66393 19.76409 35059 ft 473 kts 105°
2026-05-05 23:30 43.64539 19.85123 35055 ft 472 kts 105°
2026-05-05 23:31 43.62684 19.93830 35057 ft 472 kts 105°
2026-05-05 23:31 43.60817 20.02522 35055 ft 472 kts 105°
2026-05-05 23:32 43.58958 20.11154 35049 ft 471 kts 105°
2026-05-05 23:32 43.57088 20.19821 35050 ft 471 kts 105°
2026-05-05 23:33 43.55205 20.28488 35050 ft 471 kts 105°
2026-05-05 23:33 43.53311 20.37151 35052 ft 471 kts 105°
2026-05-05 23:34 43.51430 20.45751 35049 ft 471 kts 105°
2026-05-05 23:34 43.49536 20.54397 35050 ft 471 kts 105°
2026-05-05 23:35 43.47627 20.63063 35051 ft 472 kts 105°
2026-05-05 23:35 43.45710 20.71705 35050 ft 472 kts 105°
2026-05-05 23:36 43.43801 20.80282 35052 ft 471 kts 105°
2026-05-05 23:36 43.41869 20.88932 35054 ft 471 kts 105°
2026-05-05 23:37 43.39949 20.97513 35059 ft 471 kts 105°
2026-05-05 23:37 43.38010 21.06129 35056 ft 471 kts 105°
2026-05-05 23:38 43.36073 21.14689 35065 ft 471 kts 105°
2026-05-05 23:38 43.34128 21.23276 35068 ft 471 kts 105°
2026-05-05 23:39 43.32175 21.31867 35067 ft 470 kts 105°
2026-05-05 23:39 43.30209 21.40436 35068 ft 470 kts 105°
2026-05-05 23:40 43.28257 21.48943 35063 ft 470 kts 105°
2026-05-05 23:40 43.26283 21.57505 35057 ft 470 kts 105°
2026-05-05 23:41 43.24314 21.66051 35053 ft 469 kts 105°
2026-05-05 23:41 43.22327 21.74597 35052 ft 469 kts 105°
2026-05-05 23:42 43.20349 21.83072 35053 ft 469 kts 105°
2026-05-05 23:42 43.18363 21.91588 35053 ft 469 kts 106°
2026-05-05 23:43 43.16360 22.00116 35051 ft 469 kts 106°
2026-05-05 23:43 43.14358 22.08607 35055 ft 468 kts 105°
2026-05-05 23:44 43.12354 22.17065 35057 ft 468 kts 105°
2026-05-05 23:44 43.10338 22.25545 35052 ft 467 kts 106°
2026-05-05 23:45 43.08319 22.34007 35050 ft 467 kts 106°
2026-05-05 23:45 43.06313 22.42424 35051 ft 467 kts 105°
2026-05-05 23:46 43.04281 22.50887 35051 ft 467 kts 106°
2026-05-05 23:46 43.02236 22.59337 35049 ft 467 kts 105°
2026-05-05 23:47 43.00202 22.67734 35053 ft 468 kts 106°
2026-05-05 23:47 42.98144 22.76185 35052 ft 467 kts 105°
2026-05-05 23:48 42.96014 22.84575 35058 ft 468 kts 108°
2026-05-05 23:48 42.93626 22.92804 35056 ft 469 kts 110°
2026-05-05 23:49 42.91333 23.00389 35057 ft 469 kts 110°
2026-05-05 23:49 42.88915 23.08549 35059 ft 468 kts 109°
2026-05-05 23:50 42.86513 23.16816 35067 ft 468 kts 109°
2026-05-05 23:50 42.84122 23.25036 35067 ft 468 kts 109°
2026-05-05 23:51 42.81704 23.33277 35067 ft 468 kts 109°
2026-05-05 23:51 42.79277 23.41513 35071 ft 468 kts 109°
2026-05-05 23:52 42.76857 23.49700 35062 ft 468 kts 109°
2026-05-05 23:52 42.74417 23.57923 35067 ft 468 kts 109°
2026-05-05 23:53 42.71970 23.66138 35062 ft 468 kts 109°
2026-05-05 23:53 42.69533 23.74300 35065 ft 469 kts 109°
2026-05-05 23:54 42.67072 23.82522 35067 ft 469 kts 109°
2026-05-05 23:54 42.64608 23.90725 35065 ft 469 kts 109°
2026-05-05 23:55 42.62157 23.98878 35066 ft 469 kts 109°
2026-05-05 23:55 42.59680 24.07078 35066 ft 469 kts 109°
2026-05-05 23:56 42.57288 24.15273 35073 ft 468 kts 107°
2026-05-05 23:56 42.55036 24.23545 35069 ft 467 kts 107°
2026-05-05 23:57 42.52788 24.31829 35071 ft 467 kts 107°
2026-05-05 23:57 42.50495 24.40073 35078 ft 467 kts 108°
2026-05-05 23:58 42.48178 24.48250 35072 ft 467 kts 108°
2026-05-05 23:58 42.45854 24.56461 35072 ft 466 kts 108°
2026-05-05 23:59 42.43539 24.64665 35076 ft 466 kts 108°
2026-05-05 23:59 42.41227 24.72829 35072 ft 465 kts 108°
2026-05-06 00:00 42.38906 24.81005 35076 ft 465 kts 108°
2026-05-06 00:00 42.36584 24.89156 35082 ft 464 kts 108°
2026-05-06 00:01 42.34242 24.97299 35073 ft 463 kts 108°
2026-05-06 00:01 42.31925 25.05367 35074 ft 463 kts 108°
2026-05-06 00:02 42.29595 25.13471 35082 ft 462 kts 108°
2026-05-06 00:02 42.27257 25.21566 35078 ft 461 kts 109°
2026-05-06 00:03 42.24918 25.29634 35071 ft 461 kts 109°
2026-05-06 00:03 42.22589 25.37648 35074 ft 460 kts 109°
2026-05-06 00:04 42.20240 25.45677 35072 ft 459 kts 109°
2026-05-06 00:04 42.17714 25.53593 35070 ft 461 kts 117°
2026-05-06 00:05 42.12800 25.64728 35070 ft 460 kts 118°
2026-05-06 00:06 42.09538 25.72087 35067 ft 460 kts 118°
2026-05-06 00:06 42.06256 25.79489 35068 ft 460 kts 118°
2026-05-06 00:07 42.02966 25.86887 35069 ft 460 kts 119°
2026-05-06 00:07 41.99702 25.94185 35028 ft 445 kts 119°
2026-05-06 00:07 41.98123 25.97699 34900 ft 433 kts 119°
2026-05-06 00:08 41.96587 26.01127 34645 ft 425 kts 118°
2026-05-06 00:08 41.95117 26.04558 34210 ft 421 kts 117°
2026-05-06 00:08 41.93697 26.08043 33244 ft 431 kts 116°
2026-05-06 00:08 41.92292 26.11606 31981 ft 441 kts 116°
2026-05-06 00:09 41.90851 26.15303 30583 ft 448 kts 116°
2026-05-06 00:09 41.89398 26.19018 29232 ft 446 kts 116°
2026-05-06 00:09 41.87959 26.22652 28394 ft 432 kts 116°
2026-05-06 00:09 41.86553 26.26147 28285 ft 418 kts 117°
2026-05-06 00:10 41.85184 26.29512 28188 ft 404 kts 117°
2026-05-06 00:10 41.83861 26.32757 28094 ft 390 kts 116°
2026-05-06 00:10 41.82568 26.35921 28009 ft 387 kts 116°
2026-05-06 00:10 41.81278 26.39086 27973 ft 399 kts 115°
2026-05-06 00:11 41.79932 26.42410 27977 ft 411 kts 115°
2026-05-06 00:11 41.78550 26.45836 27979 ft 422 kts 115°
2026-05-06 00:11 41.77143 26.49311 27979 ft 425 kts 116°
2026-05-06 00:11 41.75724 26.52803 27981 ft 427 kts 116°
2026-05-06 00:12 41.74294 26.56305 27980 ft 427 kts 116°
2026-05-06 00:12 41.72882 26.59752 27980 ft 428 kts 116°
2026-05-06 00:12 41.71454 26.63243 27981 ft 428 kts 116°
2026-05-06 00:12 41.70018 26.66753 27980 ft 428 kts 116°
2026-05-06 00:13 41.68594 26.70239 27980 ft 428 kts 116°
2026-05-06 00:13 41.67158 26.73738 27980 ft 427 kts 116°
2026-05-06 00:13 41.65727 26.77217 27980 ft 428 kts 116°
2026-05-06 00:13 41.64289 26.80713 27979 ft 427 kts 116°
2026-05-06 00:14 41.62866 26.84165 27978 ft 427 kts 116°
2026-05-06 00:14 41.61429 26.87651 27978 ft 427 kts 116°
2026-05-06 00:14 41.60480 26.89953 27978 ft 427 kts 116°
2026-05-06 00:14 41.58565 26.94601 27977 ft 427 kts 116°
2026-05-06 00:15 41.57612 26.96909 27877 ft 427 kts 116°
2026-05-06 00:15 41.56168 27.00395 26762 ft 432 kts 116°
2026-05-06 00:15 41.54704 27.03920 25759 ft 436 kts 117°
2026-05-06 00:15 41.52761 27.08589 24946 ft 432 kts 117°
2026-05-06 00:16 41.51779 27.10949 24545 ft 429 kts 117°
2026-05-06 00:16 41.50337 27.14416 23948 ft 425 kts 117°
2026-05-06 00:16 41.48929 27.17809 23411 ft 421 kts 117°
2026-05-06 00:16 41.47518 27.21210 22796 ft 418 kts 117°
2026-05-06 00:17 41.46118 27.24579 22336 ft 411 kts 117°
2026-05-06 00:17 41.44733 27.27891 21841 ft 406 kts 117°
2026-05-06 00:17 41.43359 27.31167 21371 ft 401 kts 117°
2026-05-06 00:17 41.42007 27.34386 20887 ft 396 kts 117°
2026-05-06 00:18 41.40670 27.37574 20409 ft 391 kts 117°
2026-05-06 00:18 41.39362 27.40692 19930 ft 387 kts 117°
2026-05-06 00:18 41.38053 27.43799 19455 ft 382 kts 116°
2026-05-06 00:18 41.36765 27.46864 18981 ft 378 kts 116°
2026-05-06 00:19 41.35488 27.49901 18511 ft 373 kts 116°
2026-05-06 00:19 41.34224 27.52903 18044 ft 369 kts 116°
2026-05-06 00:19 41.32975 27.55867 17580 ft 365 kts 116°
2026-05-06 00:19 41.31738 27.58801 17120 ft 362 kts 116°
2026-05-06 00:20 41.30515 27.61700 16669 ft 357 kts 116°
2026-05-06 00:20 41.29303 27.64571 16216 ft 354 kts 116°
2026-05-06 00:20 41.28117 27.67375 15771 ft 350 kts 116°
2026-05-06 00:20 41.26931 27.70176 15325 ft 346 kts 116°
2026-05-06 00:21 41.25748 27.72962 14865 ft 343 kts 116°
2026-05-06 00:21 41.24577 27.75720 14441 ft 339 kts 116°
2026-05-06 00:21 41.23441 27.78395 14022 ft 335 kts 116°
2026-05-06 00:21 41.22300 27.81080 13596 ft 332 kts 116°
2026-05-06 00:22 41.21163 27.83745 13167 ft 329 kts 116°
2026-05-06 00:22 41.20038 27.86383 12741 ft 327 kts 116°
2026-05-06 00:22 41.18921 27.89008 12328 ft 324 kts 116°
2026-05-06 00:22 41.17830 27.91571 11921 ft 321 kts 116°
2026-05-06 00:23 41.16733 27.94145 11502 ft 318 kts 116°
2026-05-06 00:23 41.15643 27.96697 11065 ft 316 kts 116°
2026-05-06 00:23 41.14559 27.99220 10648 ft 313 kts 116°
2026-05-06 00:23 41.13502 28.01685 10271 ft 310 kts 117°
2026-05-06 00:24 41.12449 28.04141 9968 ft 304 kts 117°
2026-05-06 00:24 41.11412 28.06550 9824 ft 298 kts 117°
2026-05-06 00:24 41.10381 28.08952 9676 ft 299 kts 117°
2026-05-06 00:24 41.09356 28.11346 9269 ft 298 kts 117°
2026-05-06 00:25 41.08344 28.13712 8833 ft 299 kts 117°
2026-05-06 00:25 41.07322 28.16095 8419 ft 297 kts 117°
2026-05-06 00:25 41.06302 28.18466 8061 ft 293 kts 118°
2026-05-06 00:25 41.05288 28.20818 7652 ft 292 kts 118°
2026-05-06 00:26 41.04279 28.23151 7275 ft 289 kts 118°
2026-05-06 00:26 41.03281 28.25455 6875 ft 287 kts 118°
2026-05-06 00:26 41.02290 28.27742 6486 ft 286 kts 118°
2026-05-06 00:26 41.01305 28.30016 6101 ft 284 kts 118°
2026-05-06 00:27 41.00344 28.32234 5760 ft 280 kts 118°
2026-05-06 00:27 40.99393 28.34428 5611 ft 269 kts 118°
2026-05-06 00:27 40.98492 28.36507 5440 ft 253 kts 118°
2026-05-06 00:27 40.97774 28.38579 5053 ft 245 kts 104°
2026-05-06 00:28 40.97561 28.40762 4823 ft 237 kts 88°
2026-05-06 00:28 40.97569 28.42920 4619 ft 237 kts 88°
2026-05-06 00:28 40.97565 28.45093 4417 ft 236 kts 89°
2026-05-06 00:28 40.97557 28.47264 4213 ft 235 kts 89°
2026-05-06 00:29 40.97516 28.49428 4006 ft 234 kts 96°
2026-05-06 00:29 40.97197 28.51541 3800 ft 234 kts 101°
2026-05-06 00:29 40.96856 28.53643 3592 ft 233 kts 102°
2026-05-06 00:29 40.96521 28.55742 3401 ft 232 kts 101°
2026-05-06 00:30 40.96191 28.57809 3189 ft 227 kts 101°
2026-05-06 00:30 40.95943 28.59856 3065 ft 224 kts 90°
2026-05-06 00:30 40.95969 28.61909 3035 ft 223 kts 88°
2026-05-06 00:30 40.95995 28.63969 3033 ft 224 kts 89°
2026-05-06 00:31 40.96053 28.66031 3033 ft 224 kts 81°
2026-05-06 00:31 40.96509 28.67964 3036 ft 223 kts 61°
2026-05-06 00:31 40.97431 28.69604 3033 ft 223 kts 42°
2026-05-06 00:31 40.98713 28.70743 3036 ft 222 kts 22°
2026-05-06 00:32 41.00203 28.71239 3035 ft 221 kts
2026-05-06 00:32 41.01733 28.71232 3033 ft 222 kts 358°
2026-05-06 00:32 41.03274 28.71198 3034 ft 223 kts 359°
2026-05-06 00:32 41.04823 28.71168 3033 ft 222 kts 359°
2026-05-06 00:33 41.06360 28.71137 3045 ft 216 kts 359°
2026-05-06 00:33 41.07833 28.71109 3033 ft 208 kts 359°
2026-05-06 00:33 41.09269 28.71081 3029 ft 205 kts 359°
2026-05-06 00:33 41.10698 28.71052 3024 ft 205 kts 359°
2026-05-06 00:34 41.12128 28.71024 3010 ft 205 kts 359°
2026-05-06 00:34 41.13536 28.70997 2833 ft 204 kts 359°
2026-05-06 00:34 41.14951 28.70970 2584 ft 203 kts 358°
2026-05-06 00:34 41.16361 28.70942 2323 ft 202 kts 358°
2026-05-06 00:35 41.17756 28.70913 2062 ft 196 kts 358°
2026-05-06 00:35 41.19062 28.70888 1832 ft 177 kts 358°
2026-05-06 00:35 41.20227 28.70866 1586 ft 158 kts 358°
2026-05-06 00:35 41.21276 28.70845 1382 ft 149 kts 359°
2026-05-06 00:36 41.22303 28.70825 1188 ft 146 kts 359°
2026-05-06 00:36 41.23311 28.70805 996 ft 144 kts 359°
2026-05-06 00:36 41.24309 28.70785 803 ft 143 kts 359°
2026-05-06 00:36 41.25301 28.70768 625 ft 142 kts 358°
2026-05-06 00:37 41.26288 28.70742 405 ft 142 kts 359°
2026-05-06 00:37 41.27235 28.70729 333 ft 124 kts 359°
2026-05-06 00:37 41.27957 28.70710 334 ft 79 kts 359°
2026-05-06 00:37 41.28336 28.70705 334 ft 30 kts 360°
2026-05-06 00:38 41.28451 28.70708 334 ft 16 kts
2026-05-06 00:38 41.28593 28.70766 334 ft 26 kts 27°
2026-05-06 00:38 41.28730 28.70866 332 ft 21 kts 29°
2026-05-06 00:38 41.28862 28.70961 331 ft 22 kts 29°
2026-05-06 00:39 41.28993 28.71057 333 ft 11 kts 26°
2026-05-06 00:39 41.29038 28.71107 331 ft 6 kts 56°
2026-05-06 00:39 41.29019 28.71143 334 ft 7 kts 147°
2026-05-06 00:39 41.28931 28.71159 332 ft 19 kts 179°
2026-05-06 00:40 41.28771 28.71155 329 ft 23 kts 179°
2026-05-06 00:40 41.28606 28.71168 333 ft 24 kts 178°
2026-05-06 00:40 41.28473 28.71170 332 ft 19 kts 177°
2026-05-06 00:40 41.28336 28.71176 331 ft 20 kts 179°
2026-05-06 00:41 41.28191 28.71178 334 ft 22 kts 180°
2026-05-06 00:41 41.28033 28.71180 330 ft 23 kts 178°
2026-05-06 00:41 41.27877 28.71183 331 ft 23 kts 181°
2026-05-06 00:41 41.27721 28.71189 334 ft 22 kts 178°
2026-05-06 00:42 41.27560 28.71186 334 ft 24 kts 181°
2026-05-06 00:42 41.27395 28.71197 332 ft 23 kts 178°
2026-05-06 00:42 41.27231 28.71202 329 ft 24 kts 179°
2026-05-06 00:42 41.27076 28.71200 332 ft 22 kts 181°
2026-05-06 00:43 41.26922 28.71207 330 ft 23 kts 179°
2026-05-06 00:43 41.26773 28.71211 334 ft 19 kts 179°
2026-05-06 00:43 41.26695 28.71278 334 ft 15 kts 98°
2026-05-06 00:43 41.26696 28.71421 332 ft 16 kts 90°
2026-05-06 00:44 41.26699 28.71580 334 ft 18 kts 88°
2026-05-06 00:44 41.26699 28.71754 334 ft 20 kts 90°
2026-05-06 00:44 41.26702 28.71923 334 ft 13 kts 87°
2026-05-06 00:44 41.26705 28.72052 334 ft 15 kts 89°
2026-05-06 00:45 41.26666 28.72168 334 ft 15 kts 165°
2026-05-06 00:45 41.26555 28.72174 330 ft 17 kts 179°
2026-05-06 00:45 41.26432 28.72176 332 ft 18 kts 179°
2026-05-06 00:45 41.26298 28.72180 332 ft 20 kts 179°
2026-05-06 00:46 41.26154 28.72163 331 ft 22 kts 187°
2026-05-06 00:46 41.26006 28.72138 329 ft 21 kts 187°
2026-05-06 00:46 41.25859 28.72112 331 ft 22 kts 187°
2026-05-06 00:46 41.25722 28.72091 330 ft 16 kts 183°
2026-05-06 00:47 41.25610 28.72093 331 ft 14 kts 179°
2026-05-06 00:47 41.25509 28.72095 331 ft 15 kts 179°
2026-05-06 00:47 41.25436 28.72096 334 ft 11 kts 179°
2026-05-06 00:47 41.25357 28.72117 331 ft 13 kts 154°
2026-05-06 00:48 41.25286 28.72190 334 ft 14 kts 134°
2026-05-06 00:48 41.25247 28.72309 334 ft 14 kts 100°
2026-05-06 00:48 41.25245 28.72433 333 ft 14 kts 89°
2026-05-06 00:48 41.25247 28.72568 333 ft 16 kts 89°
2026-05-06 00:49 41.25249 28.72720 334 ft 17 kts 89°
2026-05-06 00:49 41.25251 28.72890 334 ft 19 kts 90°
2026-05-06 00:49 41.25253 28.73063 330 ft 18 kts 89°
2026-05-06 00:49 41.25256 28.73202 330 ft 15 kts 79°
2026-05-06 00:50 41.25344 28.73257 334 ft 16 kts 359°
2026-05-06 00:50 41.25460 28.73255 329 ft 18 kts 358°
2026-05-06 00:50 41.25558 28.73253 330 ft 11 kts
2026-05-06 00:50 41.25607 28.73316 334 ft 11 kts 79°
2026-05-06 00:51 41.25668 28.73369 334 ft 12 kts 358°
2026-05-06 00:51 41.25736 28.73372 333 ft 8 kts 19°
2026-05-06 00:51 41.25756 28.73436 332 ft 9 kts 88°
2026-05-06 00:51 41.25757 28.73484 331 ft 3 kts 90°
2026-05-06 00:52 41.25757 28.73493 334 ft 0 kts 90°